Molokai, HI

8:49 AM HST on April 26, 2017 (GMT -1000)
Molokai

Weather History for PHMK - May, 2013

Change the Weather History Date:

Sunday, May 19, 2013

  Actual Average Record
Temperature  
Mean Temperature 73 °F -  
Max Temperature 80 °F 81 °F 87 °F (1977)
Min Temperature 66 °F 67 °F 62 °F (1985)
Cooling Degree Days 8    
Growing Degree Days 23 (Base 50)    
Moisture  
Dew Point 65 °F    
Average Humidity 84    
Maximum Humidity 100    
Minimum Humidity 62    
Precipitation  
Precipitation 0.48 in - - ()
Sea Level Pressure  
Sea Level Pressure 29.99 in    
Wind  
Wind Speed 6 mph (North)    
Max Wind Speed 13 mph    
Max Gust Speed 20 mph    
Visibility 8 miles    
Events Rain    
Averages and records for this station are not official NWS values.
T = Trace of Precipitation, MM = Missing Value Source: NWS Daily Summary

Daily Weather History Graph

Daily Weather History Graph

Search for Another Location

Airport or City:

Trip Planner

Search our weather history database for the weather conditions in past years. The results will help you decide how hot, cold, wet, or windy it might be!

Date:

Astronomy

May. 19, 2013 Rise Set
Actual Time 5:48 AM HST 7:01 PM HST
Civil Twilight 5:24 AM HST 7:25 PM HST
Nautical Twilight 4:56 AM HST 7:53 PM HST
Astronomical Twilight 4:26 AM HST 8:23 PM HST
Moon 1:56 PM HST (5/19) 1:34 AM HST (5/19)
Length of Visible Light 14h 00m
Length of Day
13h 12m
Waxing Gibbous, 67% of the Moon is Illuminated
May 19
Waxing Gibbous
May 24
Full
May 31
Last Quarter
Jun 8
New
Jun 16
First Quarter

Hourly Weather History & Observations

Time (HST) Temp. Heat Index Dew Point Humidity Pressure Visibility Wind Dir Wind Speed Gust Speed Precip Events Conditions
12:54 AM 69.1 °F - 64.9 °F 87% 30.03 in 10.0 mi NNE 3.5 mph - N/A   Clear
1:54 AM 66.9 °F - 64.9 °F 93% 30.01 in 10.0 mi NNE 3.5 mph - N/A   Clear
2:43 AM 66.2 °F - 64.4 °F 94% 29.99 in 10.0 mi North 4.6 mph - N/A   Partly Cloudy
2:54 AM 66.9 °F - 64.9 °F 93% 30.00 in 10.0 mi North 6.9 mph - N/A   Partly Cloudy
3:54 AM 66.9 °F - 66.0 °F 97% 30.00 in 10.0 mi WNW 3.5 mph - N/A   Scattered Clouds
4:54 AM - - - N/A% 29.99 in 10.0 mi North 5.8 mph - N/A   Clear
5:54 AM 68.0 °F - 64.0 °F 87% 30.00 in 10.0 mi North 4.6 mph - N/A   Partly Cloudy
6:54 AM 68.0 °F - 64.9 °F 90% 30.01 in 10.0 mi North 4.6 mph - N/A   Clear
7:54 AM 73.9 °F - 66.0 °F 76% 30.02 in 10.0 mi NNE 6.9 mph - N/A   Partly Cloudy
8:54 AM 77.0 °F - 64.9 °F 66% 30.02 in 10.0 mi North 9.2 mph - N/A   Partly Cloudy
9:54 AM 77.0 °F - 66.0 °F 69% 30.02 in 10.0 mi NNE 10.4 mph - N/A   Scattered Clouds
10:54 AM 78.1 °F - 66.0 °F 66% 30.01 in 10.0 mi NNW 11.5 mph - N/A   Scattered Clouds
11:54 AM 80.1 °F 82.1 °F 66.0 °F 62% 29.99 in 10.0 mi NNW 10.4 mph - N/A   Scattered Clouds
12:54 PM 79.0 °F - 64.9 °F 62% 29.98 in 10.0 mi North 10.4 mph 17.3 mph N/A   Scattered Clouds
1:54 PM 79.0 °F - 66.0 °F 64% 29.96 in 10.0 mi North 9.2 mph - N/A   Scattered Clouds
2:54 PM 77.0 °F - 64.0 °F 64% 29.95 in 10.0 mi NNW 11.5 mph 19.6 mph N/A   Partly Cloudy
3:54 PM 77.0 °F - 64.0 °F 64% 29.95 in 10.0 mi NNW 10.4 mph 17.3 mph N/A   Scattered Clouds
4:54 PM 75.0 °F - 64.0 °F 69% 29.94 in 10.0 mi NNW 12.7 mph - N/A   Scattered Clouds
5:54 PM 72.0 °F - 66.9 °F 84% 29.95 in 10.0 mi North 9.2 mph - 0.00 in Rain Light Rain
6:23 PM 69.8 °F - 66.2 °F 88% 29.95 in 8.0 mi NNE 8.1 mph - 0.00 in Rain Light Rain
6:38 PM 69.8 °F - 66.2 °F 88% 29.95 in 10.0 mi NNW 9.2 mph - 0.00 in Rain Light Rain
6:54 PM 70.0 °F - 66.0 °F 87% 29.97 in 10.0 mi North 9.2 mph - 0.00 in Rain Light Rain
7:54 PM 70.0 °F - 66.0 °F 87% 29.99 in 10.0 mi NE 3.5 mph - 0.00 in   Overcast
8:43 PM 68.0 °F - 66.2 °F 94% 29.99 in 8.0 mi North 3.5 mph - 0.06 in Rain Light Rain
8:54 PM 68.0 °F - 66.0 °F 93% 30.00 in 10.0 mi NE 5.8 mph - 0.07 in Rain Light Rain
9:11 PM 68.0 °F - 66.2 °F 94% 30.00 in 10.0 mi WNW 3.5 mph - 0.00 in   Overcast
9:21 PM 68.0 °F - 66.2 °F 94% 30.00 in 5.0 mi Calm Calm - 0.00 in Rain Light Rain
9:27 PM 66.2 °F - 66.2 °F 100% 30.00 in 2.5 mi NNW 5.8 mph - 0.06 in Rain Heavy Rain
9:40 PM 66.2 °F - 64.4 °F 94% 30.01 in 3.0 mi North 5.8 mph - 0.14 in Rain Rain
9:52 PM 66.2 °F - 64.4 °F 94% 30.01 in 2.0 mi NNW 4.6 mph - 0.23 in Rain Heavy Rain
9:54 PM 66.0 °F - 66.0 °F 100% 30.02 in 2.0 mi North 5.8 mph - 0.25 in Rain Heavy Rain
10:13 PM 66.2 °F - 66.2 °F 100% 30.01 in 3.0 mi NNE 5.8 mph - 0.14 in Rain Heavy Rain
10:21 PM - - - N/A% 30.01 in 5.0 mi NNE 5.8 mph - 0.15 in Rain Light Rain
10:54 PM - - - N/A% 30.00 in 10.0 mi NNE 3.5 mph - 0.16 in Rain Light Rain
11:54 PM - - - N/A% 30.00 in 10.0 mi North 8.1 mph - 0.00 in   Overcast